Regional Weather Roundup
Issued by NWS Memphis, TN

Home | Current Version | Previous Version | Text Only | Print | Product List | Glossary On
Versions: 1 2 3 4 5 6 7 8 9 10 11 12 13 14 15 16 17 18 19 20 21 22 23 24 25 26 27 28 29 30 31 32 33 34 35 36 37 38 39 40 41 42 43 44 45 46 47 48 49 50
000
ASUS44 KMEG 041210
RWRMEG
MEMPHIS CWA HOURLY WEATHER ROUNDUP
NATIONAL WEATHER SERVICE MEMPHIS TN
700 AM CDT FRI SEP 04 2015

...WEST TENNESSEE...

CITY           SKY/WX    TMP DP  RH WIND       PRES   REMARKS
MEMPHIS INTL   PTCLDY    74  69  85 S5        30.00R
6HR MIN TEMP:  74; 6HR MAX TEMP:  80;

NWS MEMPHIS      N/A     71 N/A N/A MISG        N/A
JACKSON        CLEAR     68  67  96 CALM      30.01R FOG
6HR MIN TEMP:  68; 6HR MAX TEMP:  73;

LEXINGTON      CLEAR     68  66  94 CALM      30.01R
DYERSBURG      CLEAR     70  70 100 NE5       30.01R
6HR MIN TEMP:  70; 6HR MAX TEMP:  75;

UNION CITY     CLEAR    N/A N/A N/A CALM      30.00R
PARIS          CLEAR     64  64 100 CALM      30.02R


...EASTERN ARKANSAS...

CITY           SKY/WX    TMP DP  RH WIND       PRES   REMARKS
JONESBORO      CLEAR     69  68  96 CALM      30.00R
6HR MIN TEMP:  67; 6HR MAX TEMP:  70;

WEST MEMPHIS   CLEAR     70  70 100 CALM      29.98R FOG
6HR MIN TEMP:  69; 6HR MAX TEMP:  73;

BATESVILLE     CLEAR     68  66  94 W3        30.00R
6HR MIN TEMP:  68; 6HR MAX TEMP:  72;

NEWPORT        CLEAR     70  69  96 NE5       30.01R FOG
6HR MIN TEMP:  69; 6HR MAX TEMP:  75;

WALNUT RIDGE   CLEAR     70  64  83 CALM      30.00R
6HR MIN TEMP:  70; 6HR MAX TEMP:  75;

BLYTHEVILLE    CLEAR     70  70 100 NE3       30.00R
6HR MIN TEMP:  69; 6HR MAX TEMP:  76;

SEARCY         CLEAR     68  68 100 MISG      30.01R FOG
6HR MIN TEMP:  68; 6HR MAX TEMP:  73;

STUTTGART      CLEAR     73  66  78 CALM      30.00R
6HR MIN TEMP:  72; 6HR MAX TEMP:  79;

PINE BLUFF     CLEAR     70  68  93 CALM      29.98R
6HR MIN TEMP:  69; 6HR MAX TEMP:  74;

MONTICELLO     CLEAR     72  70  93 CALM      29.98R
6HR MIN TEMP:  71; 6HR MAX TEMP:  77;



...NORTH MISSISSIPPI...

CITY           SKY/WX    TMP DP  RH WIND       PRES   REMARKS
TUPELO         CLEAR     71  69  93 CALM      30.00R FOG
6HR MIN TEMP:  70; 6HR MAX TEMP:  74;

OXFORD         CLEAR     66  66 100 CALM      30.02R
OLIVE BRANCH   PTCLDY    70  70 100 CALM      30.01R
TUNICA           N/A    N/A N/A N/A MISG        N/A
CLARKSDALE     CLEAR     68  68 100 CALM      30.00R
CORINTH        CLEAR     68  68 100 CALM      30.00R FOG
GREENWOOD      CLEAR     72  68  87 CALM      29.99R
6HR MIN TEMP:  70; 6HR MAX TEMP:  77;

COLUMBUS       CLEAR     68  67  94 CALM      30.00R
6HR MIN TEMP:  67; 6HR MAX TEMP:  73;

STARKVILLE     FAIR      68  66  94 CALM      30.01R FOG
GOLDEN TRIANGL CLEAR     70  64  83 S5        30.00R FOG


...SOUTHEAST MISSOURI...

CITY           SKY/WX    TMP DP  RH WIND       PRES   REMARKS
WEST PLAINS    CLEAR     67  64  90 CALM      30.04R FOG
6HR MIN TEMP:  66; 6HR MAX TEMP:  70;

POPLAR BLUFF   MOCLDY    67  65  93 CALM      30.00R FOG
6HR MIN TEMP:  67; 6HR MAX TEMP:  71;

CAPE GIRARDEAU CLOUDY    67  66  97 CALM      30.01R FOG
6HR MIN TEMP:  65; 6HR MAX TEMP:  70;



...NORTHWEST ALABAMA...

CITY           SKY/WX    TMP DP  RH WIND       PRES   REMARKS
MUSCLE SHOALS  CLEAR     69  67  93 CALM      30.03R FOG
6HR MIN TEMP:  69; 6HR MAX TEMP:  73;



...MIDDLE TENNESSEE...

CITY           SKY/WX    TMP DP  RH WIND       PRES   REMARKS
NASHVILLE      CLEAR     73  67  81 CALM      30.04R
6HR MIN TEMP:  71; 6HR MAX TEMP:  78;

CLARKSVILLE    CLEAR     67  66  97 CALM      30.03R FOG
6HR MIN TEMP:  66; 6HR MAX TEMP:  73;

COLUMBIA       CLEAR    N/A N/A N/A CALM      30.02R


...WESTERN KENTUCKY...

CITY           SKY/WX    TMP DP  RH WIND       PRES   REMARKS
PADUCAH        CLOUDY    67  65  93 CALM      30.01R FOG
6HR MIN TEMP:  65; 6HR MAX TEMP:  70;

FORT CAMPBELL  CLEAR     69  66  92 W1        30.02R
6HR MIN TEMP:  66; 6HR MAX TEMP:  73;



...CENTRAL ARKANSAS...

CITY           SKY/WX    TMP DP  RH WIND       PRES   REMARKS
LITTLE ROCK    PTCLDY    74  69  85 CALM      29.99R
6HR MIN TEMP:  73; 6HR MAX TEMP:  77;



SKY/WX REPORTED AS FAIR MEANS FEW OR NO CLOUDS BELOW
12 THOUSAND FEET.




USA.gov is the U.S. government's official web portal to all federal, state and local government web resources and services.